| time (UTC) | temp C | wind direction | speed KPH | gust KPH | rain 1hr cm | rain 24hr cm | rain mn cm | humidity % | barometer mb |
| 20260503034054 | 10 | 103 | 3.2 | 11.3 | 0.00 | 0.38 | 0.00 | 78 | 1013.9 |
| 20260503033054 | 11 | 109 | 3.2 | 12.9 | 0.00 | 0.38 | 0.00 | 78 | 1013.9 |
| 20260503032053 | 11 | 156 | 3.2 | 9.7 | 0.00 | 0.38 | 0.00 | 78 | 1014.0 |
| 20260503031054 | 11 | 128 | 3.2 | 8.0 | 0.00 | 0.38 | 0.00 | 81 | 1014.1 |
| 20260503030054 | 11 | 199 | 3.2 | 6.4 | 0.00 | 0.38 | 0.00 | 79 | 1014.0 |
| 20260503025054 | 12 | 204 | 4.8 | 12.9 | 0.00 | 0.38 | 0.00 | 76 | 1013.8 |
| 20260503024056 | 12 | 205 | 9.7 | 14.5 | 0.00 | 0.38 | 0.00 | 75 | 1013.8 |
| 20260503023055 | 11 | 221 | 8.0 | 12.9 | 0.00 | 0.38 | 0.00 | 79 | 1014.0 |
| 20260503022053 | 11 | 226 | 3.2 | 9.7 | 0.00 | 0.38 | 0.00 | 85 | 1014.1 |
| 20260503021054 | 11 | 253 | 3.2 | 8.0 | 0.00 | 0.38 | 0.00 | 85 | 1014.1 |
| 20260503020055 | 11 | 282 | 4.8 | 11.3 | 0.00 | 0.38 | 0.00 | 85 | 1014.1 |
| 20260503015055 | 11 | 9 | 1.6 | 6.4 | 0.00 | 0.38 | 0.00 | 85 | 1014.1 |
| 20260503014054 | 11 | 137 | 3.2 | 8.0 | 0.00 | 0.38 | 0.00 | 84 | 1014.1 |
| 20260503013056 | 11 | 72 | 3.2 | 8.0 | 0.00 | 0.38 | 0.00 | 85 | 1014.1 |
| 20260503012056 | 11 | 326 | 3.2 | 6.4 | 0.00 | 0.38 | 0.00 | 85 | 1014.3 |
| 20260503011056 | 12 | 32 | 3.2 | 9.7 | 0.00 | 0.38 | 0.00 | 85 | 1014.3 |
| 20260503010057 | 12 | 233 | 3.2 | 8.0 | 0.00 | 0.38 | 0.00 | 85 | 1014.5 |
| 20260503005056 | 12 | 355 | 1.6 | 9.7 | 0.00 | 0.38 | 0.00 | 85 | 1014.5 |
| 20260503004056 | 12 | 355 | 1.6 | 8.0 | 0.00 | 0.38 | 0.00 | 84 | 1014.6 |
| 20260503003057 | 12 | 288 | 1.6 | 8.0 | 0.00 | 0.38 | 0.00 | 84 | 1014.6 |
| 20260503002056 | 12 | 196 | 3.2 | 9.7 | 0.00 | 0.38 | 0.00 | 84 | 1014.8 |
| 20260503001054 | 12 | 144 | 3.2 | 9.7 | 0.00 | 0.38 | 0.00 | 84 | 1014.8 |
| 20260502235107 | 12 | 206 | 3.2 | 11.3 | 0.00 | 0.38 | 0.00 | 83 | 1015.0 |
| 20260502234102 | 13 | 275 | 3.2 | 9.7 | 0.00 | 0.38 | 0.00 | 82 | 1015.0 |
| 20260502233104 | 13 | 215 | 3.2 | 9.7 | 0.00 | 0.38 | 0.00 | 82 | 1015.1 |
| 20260502232105 | 12 | 138 | 3.2 | 12.9 | 0.00 | 0.38 | 0.00 | 83 | 1015.2 |
| 20260502231101 | 12 | 264 | 1.6 | 6.4 | 0.00 | 0.38 | 0.00 | 87 | 1015.3 |
| 20260502225101 | 11 | 273 | 0.0 | 4.8 | 0.00 | 0.38 | 0.00 | 91 | 1015.6 |
| 20260502224102 | 11 | 20 | 0.0 | 4.8 | 0.00 | 0.38 | 0.00 | 91 | 1015.6 |
| 20260502223104 | 12 | 37 | 0.0 | 6.4 | 0.00 | 0.38 | 0.00 | 88 | 1015.5 |
| 20260502222101 | 12 | 29 | 1.6 | 4.8 | 0.00 | 0.38 | 0.00 | 88 | 1015.5 |
| 20260502221101 | 12 | 56 | 1.6 | 4.8 | 0.00 | 0.38 | 0.00 | 86 | 1015.4 |
| 20260502215108 | 12 | 52 | 1.6 | 4.8 | 0.00 | 0.38 | 0.38 | 87 | 1015.5 |
| 20260502214108 | 12 | 75 | 0.0 | 3.2 | 0.00 | 0.38 | 0.38 | 88 | 1015.6 |
| 20260502213109 | 12 | 55 | 0.0 | 3.2 | 0.00 | 0.38 | 0.38 | 89 | 1015.8 |
| 20260502212107 | 12 | 71 | 1.6 | 6.4 | 0.00 | 0.38 | 0.38 | 89 | 1015.8 |
| 20260502211105 | 12 | 79 | 0.0 | 0.0 | 0.00 | 0.38 | 0.38 | 90 | 1015.8 |
| 20260502210109 | 12 | 80 | 0.0 | 0.0 | 0.00 | 0.38 | 0.38 | 91 | 1015.8 |
| 20260502205107 | 12 | 73 | 0.0 | 0.0 | 0.00 | 0.38 | 0.38 | 91 | 1015.8 |
| 20260502204109 | 12 | 89 | 1.6 | 4.8 | 0.00 | 0.38 | 0.38 | 91 | 1015.9 |
| 20260502203110 | 12 | 338 | 1.6 | 6.4 | 0.00 | 0.38 | 0.38 | 91 | 1015.9 |
| 20260502202114 | 12 | 108 | 0.0 | 6.4 | 0.00 | 0.38 | 0.38 | 91 | 1015.9 |
| 20260502201113 | 12 | 142 | 0.0 | 4.8 | 0.00 | 0.38 | 0.38 | 91 | 1016.0 |
| 20260502200111 | 12 | 136 | 0.0 | 3.2 | 0.00 | 0.38 | 0.38 | 90 | 1016.0 |
| 20260502195100 | 12 | 169 | 1.6 | 9.7 | 0.00 | 0.38 | 0.38 | 92 | 1016.0 |
| 20260502194100 | 11 | 187 | 1.6 | 8.0 | 0.00 | 0.38 | 0.38 | 92 | 1016.1 |
| 20260502193106 | 12 | 201 | 0.0 | 4.8 | 0.00 | 0.38 | 0.38 | 90 | 1016.0 |
| 20260502192106 | 12 | 147 | 1.6 | 6.4 | 0.00 | 0.38 | 0.38 | 90 | 1016.0 |
| 20260502191109 | 12 | 147 | 3.2 | 9.7 | 0.00 | 0.38 | 0.38 | 90 | 1016.0 |
| 20260502190107 | 12 | 279 | 3.2 | 14.5 | 0.05 | 0.38 | 0.38 | 89 | 1015.9 |
| 20260502185106 | 12 | 189 | 1.6 | 11.3 | 0.13 | 0.38 | 0.38 | 89 | 1015.8 |
| 20260502184104 | 12 | 233 | 1.6 | 11.3 | 0.18 | 0.38 | 0.38 | 89 | 1015.6 |
| 20260502183108 | 12 | 122 | 1.6 | 8.0 | 0.23 | 0.38 | 0.38 | 91 | 1015.5 |
| 20260502182100 | 12 | 317 | 1.6 | 8.0 | 0.23 | 0.38 | 0.38 | 91 | 1015.6 |
| 20260502180107 | 13 | 165 | 6.4 | 16.1 | 0.23 | 0.38 | 0.38 | 86 | 1016.2 |
| 20260502170104 | 13 | 129 | 1.6 | 8.0 | 0.15 | 0.15 | 0.15 | 91 | 1016.2 |
| 20260502163102 | 13 | 60 | 1.6 | 9.7 | 0.15 | 0.15 | 0.15 | 89 | 1016.5 |
| 20260502161104 | 15 | 163 | 8.0 | 20.9 | 0.05 | 0.05 | 0.05 | 75 | 1016.5 |
| 20260502152101 | 21 | 288 | 9.7 | 19.3 | 0.00 | 0.00 | 0.00 | 56 | 1015.1 |
| 20260502151104 | 21 | 197 | 9.7 | 22.5 | 0.00 | 0.00 | 0.00 | 56 | 1015.3 |
| 20260502123057 | 19 | 356 | 9.7 | 16.1 | 0.00 | 0.00 | 0.00 | 61 | 1018.0 |
| 20260502122056 | 18 | 204 | 9.7 | 17.7 | 0.00 | 0.00 | 0.00 | 63 | 1018.2 |
| 20260502121055 | 18 | 203 | 12.9 | 24.1 | 0.00 | 0.00 | 0.00 | 61 | 1018.3 |
| 20260502115053 | 18 | 196 | 11.3 | 22.5 | 0.00 | 0.00 | 0.00 | 61 | 1018.6 |
| 20260502113056 | 19 | 163 | 6.4 | 14.5 | 0.00 | 0.00 | 0.00 | 62 | 1018.7 |
| 20260502112057 | 18 | 201 | 9.7 | 17.7 | 0.00 | 0.00 | 0.00 | 62 | 1018.8 |
| 20260502111057 | 18 | 205 | 9.7 | 17.7 | 0.00 | 0.00 | 0.00 | 62 | 1018.9 |
| 20260502110055 | 19 | 89 | 9.7 | 19.3 | 0.00 | 0.00 | 0.00 | 61 | 1018.8 |
| 20260502105057 | 18 | 96 | 6.4 | 12.9 | 0.00 | 0.00 | 0.00 | 62 | 1019.0 |
| 20260502104056 | 18 | 201 | 11.3 | 20.9 | 0.00 | 0.00 | 0.00 | 63 | 1019.1 |
| 20260502103055 | 19 | 202 | 11.3 | 20.9 | 0.00 | 0.00 | 0.00 | 62 | 1018.9 |
| 20260502102055 | 20 | 188 | 11.3 | 24.1 | 0.00 | 0.00 | 0.00 | 61 | 1018.9 |
| 20260502101057 | 19 | 200 | 12.9 | 27.4 | 0.00 | 0.00 | 0.00 | 62 | 1019.0 |
| 20260502071055 | 13 | 208 | 8.0 | 12.9 | 0.00 | 0.00 | 0.00 | 75 | 1020.8 |
| 20260502070052 | 12 | 222 | 6.4 | 11.3 | 0.00 | 0.00 | 0.00 | 78 | 1021.1 |
| 20260502064054 | 12 | 256 | 4.8 | 12.9 | 0.00 | 0.00 | 0.00 | 77 | 1021.2 |
| 20260502063054 | 12 | 277 | 3.2 | 9.7 | 0.00 | 0.00 | 0.00 | 74 | 1021.1 |
| 20260502062051 | 13 | 294 | 3.2 | 9.7 | 0.00 | 0.00 | 0.00 | 71 | 1020.9 |
| 20260502061054 | 13 | 174 | 4.8 | 12.9 | 0.00 | 0.00 | 0.00 | 70 | 1021.1 |
| 20260502060056 | 13 | 260 | 4.8 | 17.7 | 0.00 | 0.00 | 0.00 | 68 | 1021.3 |
| 20260502055056 | 13 | 84 | 4.8 | 16.1 | 0.00 | 0.00 | 0.00 | 67 | 1021.5 |
| 20260502053056 | 12 | 210 | 1.6 | 4.8 | 0.00 | 0.00 | 0.00 | 63 | 1021.5 |
| 20260502052050 | 12 | 131 | 3.2 | 6.4 | 0.00 | 0.00 | 0.00 | 63 | 1021.3 |
| 20260502045053 | 12 | 159 | 1.6 | 4.8 | 0.00 | 0.00 | 0.00 | 63 | 1021.3 |
| 20260502044053 | 12 | 164 | 3.2 | 8.0 | 0.00 | 0.00 | 0.00 | 61 | 1021.3 |
| 20260502042052 | 12 | 197 | 6.4 | 11.3 | 0.00 | 0.00 | 0.00 | 59 | 1021.2 |
| 20260502041052 | 12 | 176 | 6.4 | 11.3 | 0.00 | 0.00 | 0.00 | 57 | 1021.2 |
| 20260502035055 | 12 | 226 | 6.4 | 14.5 | 0.00 | 0.00 | 0.00 | 53 | 1021.4 |